map of REP home
Great Circle Mapper logo
REP - Airport
Location
City:  Siem Reap, Cambodia
Name:Angkor International Airport
ICAO / IATA:VDSR / REP

Details
Type:Airport (Aerodrome, Airfield)
Use:International (customs port of entry)
Latitude:13°24'38"N (13.410666)
Longitude:103°48'46"E (103.812840)
Datum:WGS 1984
Elevation:60 ft (18 m)
Variation:0.60°W (WMM2015 magnetic declination)
-0.01° annual change
Runways:1
Longest:8366 × 148 ft (2550 × 45 m), paved

Time
Time Zone:UTC+7
Local Time:

Weather
METAR:VDSR 110600Z 32004KT 250V020 CAVOK 33/12 Q1009
TAF:VDSR 102300Z 1100/1118 24006KT 9999 FEW020

Related Locations
Nearby:
Farthest:PIO: 12447 mi / 20032 km
Pisco [Capitán FAP Renán Elías Olivera Airport], ICA, PE

Find:

   beyond  
but within

Other Information
Maps:
NOTAMs:
Links:
Sources:

  
flag of Cambodia   

Sectional Chart

Flight Planning
at skyvector.com

Satellite Image

Google Maps Satellite view

 

Copyright © 2004-2016 Karl L. Swartz. All rights reserved.
The Great Circle Mapper name and logo are trademarks of the Great Circle Mapper.
All other trademarks mentioned herein belong to their respective owners.
Please see credits for attibutions and further copyright information.

  Follow gcmap on Facebook Follow gcmap on Twitter Follow gcmap on Google+ GCmap on LinkedIn

hCard Microformat

Geo Microformat